Weather reports worldwide

Advertisment
Sennybridge, United Kingdom (3507): temperature & dewpoint: 17.10.2017 03:00:00 - 23.10.2017 03:00:00 (BST)Sennybridge, United Kingdom (3507): temperature -20cm & temperature -100cm: 17.10.2017 03:00:00 - 23.10.2017 03:00:00 (BST)Sennybridge, United Kingdom (3507): wind speed & gusts: 17.10.2017 03:00:00 - 23.10.2017 03:00:00 (BST)Sennybridge, United Kingdom (3507): wind direction: 17.10.2017 03:00:00 - 23.10.2017 03:00:00 (BST)Sennybridge, United Kingdom (3507): reduced air pressure: 17.10.2017 03:00:00 - 23.10.2017 03:00:00 (BST)Sennybridge, United Kingdom (3507): visibility: 17.10.2017 03:00:00 - 23.10.2017 03:00:00 (BST)Sennybridge, United Kingdom (3507): precipitation: 17.10.2017 03:00:00 - 23.10.2017 03:00:00 (BST)
Date & Time tt [°C] td [°C] tt -20cm [°C] tt -100cm [°C] ff [km/h] ff [kn] fx [km/h] fx [kn] dd ppp [hPa] vv [km] rr [mm]
23.10.2017 03:00:00 10,3 10,0 - - 21 11 - - WSW 1017,1 6 0,8
23.10.2017 02:00:00 9,9 9,5 - - 11 6 - - SW 1017,4 10 0,2
23.10.2017 01:00:00 9,7 9,3 - - 16 9 - - SW 1017,7 10 0,0
23.10.2017 00:00:00 9,3 8,8 - - 13 7 - - SW 1018,1 10 0,0
22.10.2017 23:00:00 9,0 8,5 - - 13 7 - - SW 1018,5 11 0,0
22.10.2017 22:00:00 8,7 8,0 - - 11 6 - - WSW 1018,8 15 0,0
22.10.2017 21:00:00 8,7 7,6 - - 13 7 - - WSW 1018,6 21 -
22.10.2017 20:00:00 8,9 7,7 - - 13 7 - - WSW 1018,5 22 -
22.10.2017 19:00:00 8,9 8,2 - - 11 6 - - W 1018,0 19 0,2
22.10.2017 18:00:00 9,0 7,8 - - 8 4 - - W 1017,5 23 0,0
22.10.2017 17:00:00 9,0 8,3 - - 5 3 - - WNW 1017,2 30 0,4
22.10.2017 16:00:00 8,5 7,5 - - 8 4 - - WNW 1017,1 11 0,4
22.10.2017 15:00:00 9,5 8,5 - - 5 3 - - WNW 1016,2 45 1,2
22.10.2017 14:00:00 9,3 8,0 - - 9 5 - - WNW 1015,8 35 0,2
22.10.2017 13:00:00 8,6 7,1 - - 13 7 - - W 1015,6 35 0,0
22.10.2017 12:00:00 9,5 6,2 - - 11 6 - - W 1015,0 35 0,0
22.10.2017 11:00:00 8,6 4,8 - - 9 5 - - WNW 1014,6 23 0,0
22.10.2017 10:00:00 7,8 3,9 12,0 13,0 11 6 - - WNW 1014,1 27 0,0
22.10.2017 09:00:00 7,0 3,4 - - 8 4 - - WNW 1013,4 17 0,0
22.10.2017 08:00:00 7,1 4,0 - - 11 6 - - W 1012,7 18 0,0
22.10.2017 07:00:00 7,2 4,6 - - 11 6 - - W 1011,8 16 -
22.10.2017 06:00:00 7,1 5,2 - - 9 5 - - WNW 1011,4 12 0,2
22.10.2017 05:00:00 7,3 5,1 - - 9 5 - - W 1010,4 18 0,2
22.10.2017 04:00:00 7,1 5,5 - - 8 4 - - WNW 1009,8 8 -
22.10.2017 03:00:00 7,3 5,7 - - 9 5 - - WNW 1009,0 11 0,2
22.10.2017 02:00:00 7,4 6,1 - - 9 5 - - W 1008,5 9 0,4
22.10.2017 01:00:00 7,6 6,6 - - 8 4 - - WNW - - 1,0
22.10.2017 00:00:00 8,0 7,1 - - 9 5 - - WNW - - 1,0
21.10.2017 23:00:00 8,6 8,0 - - 11 6 - - WNW 1004,6 7 1,0
21.10.2017 22:00:00 8,9 8,5 - - 13 7 - - W 1003,0 3,5 1,2
21.10.2017 21:00:00 9,0 8,6 - - 13 7 46 25 W 1001,7 4,5 1,0
21.10.2017 20:00:00 9,2 8,6 - - 13 7 - - W 1000,8 4,0 1,4
21.10.2017 19:00:00 9,9 9,2 - - 11 6 48 26 WNW 999,7 23 1,4
21.10.2017 18:00:00 10,4 10,0 - - 24 13 55 30 WSW 997,5 13 2,0
21.10.2017 17:00:00 10,0 9,7 - - 31 17 54 29 SW 996,5 4,6 0,6
21.10.2017 16:00:00 9,6 9,3 - - 35 19 68 37 WSW 995,7 4,6 0,6
21.10.2017 15:00:00 9,6 9,1 - - 48 26 81 44 WSW 994,7 5 1,0
21.10.2017 14:00:00 9,7 9,0 - - 46 25 83 45 SW 994,2 2,8 2,0
21.10.2017 13:00:00 9,7 8,9 - - 50 27 81 44 SW 993,6 3,8 0,8
21.10.2017 12:00:00 9,9 8,8 - - 52 28 81 44 SW 993,5 7 0,4
21.10.2017 11:00:00 9,8 8,7 - - 46 25 74 40 SW 994,3 5 1,4
21.10.2017 10:00:00 10,0 8,9 12,7 13,0 41 22 80 43 SW 994,1 8 0,8
21.10.2017 09:00:00 9,9 8,8 - - 50 27 80 43 SW 993,8 4,0 0,6
21.10.2017 08:00:00 10,0 8,5 - - 46 25 70 38 SW 993,8 10 0,0
21.10.2017 07:00:00 10,0 8,7 - - 42 23 68 37 SSW 994,6 9 -
21.10.2017 06:00:00 10,0 8,1 - - 48 26 68 37 SSW 995,2 8 -
21.10.2017 05:00:00 10,1 8,5 - - 37 20 57 31 SSW 995,6 9 -
21.10.2017 04:00:00 10,7 8,4 - - 37 20 57 31 SSW 996,6 9 -
21.10.2017 03:00:00 11,1 9,5 - - 31 17 61 33 SW 997,2 8 -
21.10.2017 02:00:00 11,6 9,9 - - 37 20 57 31 SSW 997,5 12 -
21.10.2017 01:00:00 12,0 10,5 - - 34 18 48 26 SSW 998,0 10 -
21.10.2017 00:00:00 11,9 10,6 - - 31 17 46 25 SSW 998,6 13 -
20.10.2017 23:00:00 12,0 11,4 - - 29 16 54 29 S 998,1 4,4 -
20.10.2017 22:00:00 11,3 10,7 - - 37 20 57 31 S 999,2 6 -
20.10.2017 21:00:00 11,0 10,0 - - 37 20 61 33 S 1000,5 6 0,0
20.10.2017 20:00:00 10,4 9,2 - - 37 20 50 27 S 1001,9 26 1,0
20.10.2017 19:00:00 10,1 7,6 - - 15 8 - - SSE 1003,6 27 0,0
20.10.2017 18:00:00 10,1 7,3 - - 16 9 - - S 1004,8 29 0,0
20.10.2017 17:00:00 9,8 6,8 - - 18 10 - - S 1005,6 24 0,0
20.10.2017 16:00:00 9,9 6,6 - - 18 10 - - SSW 1006,2 18 0,0
20.10.2017 15:00:00 10,0 6,1 - - 24 13 - - SW 1006,5 26 0,0
20.10.2017 14:00:00 10,1 6,5 - - 24 13 - - SW 1006,9 17 0,0
20.10.2017 13:00:00 9,8 8,0 - - 18 10 - - SW 1006,9 14 0,0
20.10.2017 12:00:00 8,9 8,4 - - 18 10 - - WSW 1007,0 12 0,0
20.10.2017 11:00:00 8,3 8,1 - - 11 6 - - W 1006,6 8 0,2
20.10.2017 10:00:00 8,6 8,3 12,7 13,2 15 8 - - W 1005,9 2,4 0,2
20.10.2017 09:00:00 8,7 8,4 - - 8 4 - - W 1004,3 6 0,2
20.10.2017 08:00:00 8,9 8,5 - - 16 9 - - W 1002,9 4,3 0,0
20.10.2017 07:00:00 9,3 8,9 - - 13 7 - - W 1001,5 5 0,4
20.10.2017 06:00:00 9,9 9,5 - - 9 5 - - W 999,9 3,6 0,6
20.10.2017 05:00:00 10,4 10,1 - - 13 7 - - W 998,0 3,2 0,6
20.10.2017 04:00:00 9,9 9,5 - - 5 3 - - WNW 996,8 50 0,0
20.10.2017 03:00:00 10,3 10,0 - - 2 1 - - WNW 994,8 6 0,2
20.10.2017 02:00:00 10,2 9,7 - - 4 2 - - NNW 993,1 0,5 0,2
20.10.2017 01:00:00 10,3 9,7 - - 13 7 - - SE 991,9 50 0,0
20.10.2017 00:00:00 10,4 9,5 - - 21 11 - - SSE 991,7 13 0,4
19.10.2017 23:00:00 10,5 8,9 - - 22 12 - - SSE 992,0 40 0,0
19.10.2017 22:00:00 11,2 9,2 - - 26 14 - - S 992,3 45 0,0
19.10.2017 21:00:00 12,1 11,2 - - 24 13 - - S 992,5 50 0,6
19.10.2017 20:00:00 12,0 11,2 - - 28 15 48 26 S 993,2 4,0 1,6
19.10.2017 19:00:00 11,8 10,8 - - 34 18 59 32 S 994,2 9 0,6
19.10.2017 18:00:00 12,0 9,5 - - 21 11 - - SSE 995,1 50 0,0
19.10.2017 17:00:00 11,9 10,6 - - 21 11 - - SSE 995,8 17 0,6
19.10.2017 16:00:00 13,1 10,6 - - 18 10 - - S 997,1 24 0,0
19.10.2017 15:00:00 13,1 11,7 - - 21 11 - - S 998,0 28 0,0
19.10.2017 14:00:00 12,7 11,7 - - 16 9 - - SE 999,1 40 0,0
19.10.2017 13:00:00 11,9 10,9 - - 18 10 - - ESE 1000,0 12 0,0
19.10.2017 12:00:00 12,2 10,7 - - 18 10 - - SE 1001,4 14 0,0
19.10.2017 11:00:00 11,4 10,2 - - 26 14 - - SE 1002,7 9 0,0
19.10.2017 10:00:00 10,9 10,0 12,7 13,2 21 11 - - SE 1003,6 8 0,0
19.10.2017 09:00:00 10,6 9,8 - - 18 10 - - SSE 1003,9 10 0,0
19.10.2017 08:00:00 10,0 9,2 - - 5 3 - - S 1004,2 9 0,0
19.10.2017 07:00:00 10,3 9,4 - - 13 7 - - SSE 1004,6 10 0,0
19.10.2017 06:00:00 11,0 10,0 - - 13 7 - - SSE 1005,3 11 0,0
19.10.2017 05:00:00 10,9 10,1 - - 9 5 - - SSE 1006,0 8 0,0
19.10.2017 04:00:00 10,8 10,1 - - 15 8 - - SE 1006,6 6 0,0
19.10.2017 03:00:00 10,7 10,2 - - 18 10 - - SSE 1007,6 5 0,0
19.10.2017 02:00:00 10,4 10,0 - - 16 9 - - S 1007,9 4,8 0,0
19.10.2017 01:00:00 10,1 9,8 - - 21 11 - - S 1008,3 6 0,0
19.10.2017 00:00:00 9,7 9,5 - - 13 7 - - S 1008,7 3,4 0,0
18.10.2017 23:00:00 9,3 9,2 - - 4 2 - - ESE 1009,0 3,3 0,0
18.10.2017 22:00:00 9,7 9,5 - - 5 3 - - N 1009,0 1,5 0,2
18.10.2017 21:00:00 11,7 10,9 - - 0 0 - - N - - 0,0
18.10.2017 20:00:00 9,8 9,4 - - 4 2 - - ENE 1010,1 2,8 0,0
18.10.2017 19:00:00 9,8 9,3 - - 4 2 - - SE 1009,9 1,0 0,0
18.10.2017 18:00:00 10,0 9,4 - - 2 1 - - NNW 1010,0 2,8 0,0
18.10.2017 17:00:00 9,9 9,3 - - 4 2 - - NNW 1010,1 2,8 0,0
18.10.2017 16:00:00 10,1 9,2 - - 2 1 - - N 1010,3 1,6 0,0
18.10.2017 15:00:00 10,3 9,4 - - 8 4 - - ENE 1010,4 10 0,0
18.10.2017 14:00:00 9,8 8,7 - - 8 4 - - NE 1010,7 10 0,0
18.10.2017 13:00:00 9,4 8,1 - - 4 2 - - E 1011,6 11 0,0
18.10.2017 12:00:00 9,5 8,3 - - 13 7 - - E 1011,8 9 0,0
18.10.2017 11:00:00 9,1 7,9 - - 9 5 - - NE 1012,1 16 0,0
18.10.2017 10:00:00 8,3 7,1 13,0 13,2 11 6 - - NE 1012,4 14 0,0
18.10.2017 09:00:00 8,1 6,8 - - 9 5 - - NE 1012,9 22 0,0
18.10.2017 08:00:00 6,8 5,8 - - 5 3 - - N 1012,8 27 0,0
18.10.2017 07:00:00 6,8 5,9 - - 9 5 - - NNE 1012,9 26 0,0
18.10.2017 06:00:00 6,1 5,6 - - 9 5 - - NNE 1013,4 21 0,0
18.10.2017 05:00:00 5,7 5,0 - - 4 2 - - N 1013,8 9 0,0
18.10.2017 04:00:00 6,9 4,9 - - 8 4 - - NE 1014,3 35 0,0
18.10.2017 03:00:00 7,2 5,1 - - 9 5 - - ENE 1014,8 30 0,0
18.10.2017 02:00:00 7,2 6,3 - - 4 2 - - NE 1015,4 19 0,0
18.10.2017 01:00:00 7,5 6,3 - - 5 3 - - N 1016,2 21 0,0
18.10.2017 00:00:00 7,5 5,5 - - 2 1 - - NE 1016,7 30 0,0
17.10.2017 23:00:00 8,3 5,9 - - 2 1 - - E 1017,3 28 0,0
17.10.2017 22:00:00 8,0 6,1 - - 2 1 - - WSW 1017,3 40 0,0
17.10.2017 21:00:00 8,1 5,7 - - 2 1 - - N 1017,0 28 0,0
17.10.2017 20:00:00 8,1 5,8 - - 4 2 - - ENE 1016,9 27 0,0
17.10.2017 19:00:00 8,5 6,5 - - 4 2 - - NE 1017,0 26 0,0
17.10.2017 18:00:00 9,6 6,7 - - 2 1 - - S 1017,2 30 0,0
17.10.2017 17:00:00 11,1 6,4 - - 11 6 - - WSW 1017,3 27 0,0
17.10.2017 16:00:00 12,1 6,3 - - 9 5 - - WSW 1017,7 40 0,0
17.10.2017 15:00:00 12,7 5,8 - - 13 7 - - W 1017,9 21 0,0
17.10.2017 14:00:00 13,0 6,4 - - 15 8 - - WSW 1018,5 24 0,0
17.10.2017 13:00:00 12,4 6,1 - - 9 5 - - W 1018,8 19 0,0
17.10.2017 12:00:00 12,4 6,8 - - 18 10 - - W 1019,0 21 0,0
17.10.2017 11:00:00 10,7 7,8 - - 21 11 - - WSW 1019,0 15 0,0
17.10.2017 10:00:00 10,1 7,8 13,2 13,2 21 11 - - WSW 1018,8 13 0,0
17.10.2017 09:00:00 9,3 7,5 - - 22 12 - - WSW 1018,2 13 0,0
17.10.2017 08:00:00 8,2 6,7 - - 21 11 - - WSW 1017,7 13 0,0
17.10.2017 07:00:00 8,6 6,7 - - 22 12 - - WSW 1017,1 13 0,0
17.10.2017 06:00:00 9,1 6,8 - - 29 16 48 26 WSW 1016,9 13 0,0
17.10.2017 05:00:00 9,5 6,8 - - 22 12 50 27 WSW 1016,6 12 0,0
17.10.2017 04:00:00 9,9 7,3 - - 34 18 63 34 WSW 1016,0 13 0,0
17.10.2017 03:00:00 10,2 7,4 - - 35 19 61 33 WSW 1016,0 13 0,2

tt = temperature
td = dewpoint
tt -20cm = temperature -20cm
tt -100cm = temperature -100cm
ff = wind speed
fx = gusts
dd = wind direction
ppp = reduced air pressure
vv = visibility
rr = precipitation

Next stations